Regional Weather Roundup
Issued by NWS Charleston, SC

Current Version | Previous Version | Text Only | Print | Product List | Glossary Off
Versions: 1 2 3 4 5 6 7 8 9 10 11 12 13 14 15 16 17 18 19 20 21 22 23 24 25 26 27 28 29 30 31 32 33 34 35 36 37 38 39 40 41 42 43 44 45 46 47 48 49 50
000 ASUS42 KCHS 170812 RWRCHS Regional Weather Roundup National Weather Service Charleston SC 300 AM EST SUN DEC 17 2017 NOTE: "fair" indicates few or no clouds below 12,000 feet with no significant weather and/or obstructions to visibility. Not all stations are quality controlled. Use data with caution, especially dewpoint observations. SCZ027-030-031-034>040-042>050-170900- ...Southeast South Carolina... CITY SKY/WX TMP DP RH WIND PRES REMARKS N Charleston PTCLDY 34 33 96 CALM 30.30S Waterfront Prk N/A 42 40 92 CALM 30.15S Mount Pleasant FAIR 32 32 100 CALM 30.31R Johns Island FAIR 34 32 93 CALM 30.31S Pinopolis N/A 39 39 100 CALM 30.22R Moncks Corner FAIR 30 30 100 CALM 30.30S FOG Summerville FAIR 32 30 93 CALM 30.32R Beaufort MCAS FOG 33 33 100 N3 30.30F VSB 1/2 Beaufort Arpt N/A 36 36 100 CALM 30.30S FOG Hilton Head Is CLEAR 37 36 93 CALM 30.31S Walterboro MOSUNNY 30 30 100 CALM 30.32S Allendale FAIR 30 30 100 CALM 30.29F ...Southern Midlands and Pee Dee... CITY SKY/WX TMP DP RH WIND PRES REMARKS Georgetown FAIR 30 30 100 CALM 30.32R Kingstree FAIR 30 28 93 CALM 30.30S Orangeburg CLOUDY 30 29 96 CALM 30.30R FOG Barnwell N/A 30 28 93 CALM 30.29F Aiken FAIR 28 27 93 CALM 30.31R Manning FAIR 30 28 93 MISG 30.29F Columbia PTCLDY 31 29 92 CALM 30.28S Sumter CLOUDY 31 28 87 CALM 30.27S Florence PTCLDY 31 28 89 CALM 30.29F Myrtle Beach CLEAR 34 31 88 CALM 30.31S N Myrtle Beach CLEAR 33 32 96 CALM 30.30S FOG $$ GAZ063-065-086>088-099>101-113>116-118-119-134>141-150-170900- ...Southeast Georgia... CITY SKY/WX TMP DP RH WIND PRES REMARKS Savannah Arpt CLOUDY 35 34 96 CALM 30.30F Hunter AAF CLOUDY 37 34 90 CALM N/A Fort Stewart CLOUDY 35 33 92 CALM N/A Statesboro CLOUDY 32 32 100 CALM 30.28F Sylvania CLOUDY 32 32 100 CALM 30.30F FOG Claxton FAIR 32 31 98 CALM 30.29F ...CSRA, Central and far Southeast Georgia... CITY SKY/WX TMP DP RH WIND PRES REMARKS Thomson CLOUDY 28 26 94 CALM 30.32S FOG Augusta-Bush CLOUDY 27 26 96 CALM 30.30R Augusta-Daniel CLOUDY 37 30 75 CALM 30.29R Swainsboro FAIR 34 34 100 CALM 30.29F Vidalia CLOUDY 37 36 93 CALM 30.29S Eastman FAIR 33 28 82 CALM 30.31R Hazlehurst FAIR 41 31 67 CALM 30.28S Alma CLOUDY 37 35 92 CALM 30.28F FOG Waycross PTCLDY 38 36 91 CALM 30.28F Jesup FAIR 36 34 93 CALM 30.30S Baxley FAIR 34 34 100 CALM 30.28F Brunswick CLOUDY 37 36 93 CALM 30.31R FOG Saint Simons PTCLDY 43 41 93 CALM 30.29S $$ SCZ027-028-034-036>038-045-046-048>050-GAZ119-141-170900- ...Lake and Supplemental Coastal Observations... STATION/POSITION TIME TEMP WIND PRES WAVE SWELL AIR SEA DIR/SP/G HT/PER HT/PER/DIR (UTC) (F) (DEG/KT/KT) (MB) (FT/S) (FT/S/D) Winyah Bay NOT AVBL Lake Murray 0720 40 CALM 1024.4 ACE Basin NERRS 0645 35 CALM 1026.0 Fort Pulaski 0736 42 53 350/ 2/ 3 1026.1F Sapelo Island 0700 41 40/ 3 1026.0 $$ ANZ835-935-AMZ111-154-330-350-352-354-370-450-454-472-170900- ...C-MAN and Buoy Observations... STATION/POSITION TIME TEMP WIND PRES WAVE SWELL AIR SEA DIR/SP/G HT/PER HT/PER/DIR (UTC) (F) (DEG/KT/KT) (MB) (FT/S) (FT/S/D) Buoy 41004 0750 58 72 330/ 10/ 12 1025.3S 2/10 2/130/10 Buoy 41008 0750 55 58 50/ 2/ 4 1025.7F 2/10 2/120/10 Folly Beach CMAN 0700 41 310/ 4/ 5 1026.3F Capers Nearshore 0708 45 55 320/ 6/ 8 1025.5F STATION/POSITION TIME TEMP WIND PRES WAVE SWELL AIR SEA DIR/SP/G HT/PER HT/PER/DIR (UTC) (F) (DEG/KT/KT) (MB) (FT/S) (FT/S/D) 5E St. Marys GA 0730 62 N/A 1/10 Frying Pan Buoy 0750 56 68 310/ 8/ 12 1025.7F 2/ 8 2/ 70/ 8 Buoy 41025 0750 53 72 290/ 12/ 16 1025.9R 3/ 9 2/ 80/ 9 Cape Lookout NC 0700 270/ 9/ 10 1026.0R Buoy 41002 0750 62 74 340/ 8/ 10 1025.2F 4/10 3/100/10 Buoy 41010 NOT AVBL St Augustine FL 0800 61 63 20/ 9/ 10 1025.1F $$

USA.gov is the U.S. government's official web portal to all federal, state and local government web resources and services.